Weather History for KPSM - January, 2012

Change the Weather History Date:

Wednesday, January 4, 2012

  Actual Average Record
Temperature  
Mean Temperature 14 °F -  
Max Temperature 24 °F 33 °F 56 °F (1993)
Min Temperature 5 °F 19 °F -5 °F (1981)
Degree Days  
Heating Degree Days 50    
Moisture  
Dew Point -3 °F    
Average Humidity 45    
Maximum Humidity 62    
Minimum Humidity 26    
Precipitation  
Precipitation 0.00 in - - ()
Sea Level Pressure  
Sea Level Pressure 30.00 in    
Wind  
Wind Speed 8 mph (West)    
Max Wind Speed 14 mph    
Max Gust Speed -    
Visibility 10 miles    
Events      
Averages and records for this station are not official NWS values.
T = Trace of Precipitation, MM = Missing Value Source: NWS Daily Summary

Daily Weather History Graph

Daily Weather History Graph

Search for Another Location

Airport or City:

Trip Planner

Search our weather history database for the weather conditions in past years. The results will help you decide how hot, cold, wet, or windy it might be!

Date:

Astronomy

Jan. 04, 2012 Rise Set
Actual Time 7:14 AM EST 4:21 PM EST
Civil Twilight 6:42 AM EST 4:53 PM EST
Nautical Twilight 6:07 AM EST 5:29 PM EST
Astronomical Twilight 5:32 AM EST 6:03 PM EST
Moon 12:43 PM EST (1/4) 2:59 AM EST (1/4)
Length of Visible Light 10h 10m
Length of Day
9h 06m
Waxing Gibbous, 80% of the Moon is Illuminated
Jan 4
Waxing Gibbous
Jan 9
Full
Jan 16
Last Quarter
Jan 23
New
Jan 30
First Quarter

Hourly Weather History & Observations

Time (EST) Temp. Windchill Dew Point Humidity Pressure Visibility Wind Dir Wind Speed Gust Speed Precip Events Conditions
12:55 AM 7.7 °F -3.7 °F -5.1 °F 56% 30.02 in 10.0 mi West 6.9 mph - N/A   Clear
1:55 AM 7.5 °F -6.9 °F -5.6 °F 55% 30.04 in 10.0 mi WNW 10.4 mph - N/A   Clear
2:55 AM 6.8 °F -5.9 °F -4.7 °F 59% 30.05 in 10.0 mi West 8.1 mph - N/A   Clear
3:55 AM 6.4 °F -7.3 °F -5.1 °F 59% 30.05 in 10.0 mi WNW 9.2 mph - N/A   Clear
4:55 AM 6.3 °F -6.5 °F -4.7 °F 61% 30.06 in 10.0 mi WNW 8.1 mph - N/A   Clear
5:55 AM 5.7 °F -6.1 °F -4.7 °F 62% 30.06 in 10.0 mi WNW 6.9 mph - N/A   Clear
6:55 AM 5.4 °F -8.6 °F -5.3 °F 62% 30.06 in 10.0 mi WNW 9.2 mph - N/A   Clear
7:55 AM 6.4 °F -8.2 °F -5.3 °F 59% 30.07 in 10.0 mi WNW 10.4 mph - N/A   Clear
8:55 AM 10.0 °F -3.7 °F -4.4 °F 52% 30.08 in 10.0 mi West 10.4 mph - N/A   Scattered Clouds
9:55 AM 13.5 °F -1.5 °F -4.2 °F 45% 30.07 in 10.0 mi West 13.8 mph - N/A   Mostly Cloudy
10:55 AM 18.0 °F 7.7 °F -4.2 °F 38% 30.05 in 10.0 mi West 8.1 mph - N/A   Scattered Clouds
11:55 AM 19.9 °F 9.3 °F -5.3 °F 33% 30.01 in 10.0 mi West 9.2 mph - N/A   Mostly Cloudy
12:55 PM 23.2 °F 12.6 °F -6.9 °F 27% 29.99 in 10.0 mi West 10.4 mph - N/A   Mostly Cloudy
1:55 PM 23.7 °F 13.3 °F -7.2 °F 26% 29.98 in 10.0 mi West 10.4 mph - N/A   Scattered Clouds
2:55 PM 23.7 °F 11.5 °F -4.9 °F 29% 29.98 in 10.0 mi WSW 13.8 mph - N/A   Mostly Cloudy
3:55 PM 21.9 °F 12.5 °F -5.1 °F 30% 29.99 in 10.0 mi West 8.1 mph - N/A   Scattered Clouds
4:55 PM 19.9 °F - -2.0 °F 38% 29.98 in 10.0 mi Calm Calm - N/A   Mostly Cloudy
5:55 PM 21.4 °F - 0.5 °F 40% 29.97 in 10.0 mi Calm Calm - N/A   Overcast
6:55 PM 21.6 °F - 3.2 °F 45% 29.98 in 10.0 mi Calm Calm - N/A   Overcast
7:55 PM 21.9 °F 17.2 °F 2.8 °F 44% 29.96 in 10.0 mi South 3.5 mph - N/A   Overcast
8:55 PM 23.0 °F 15.8 °F 2.1 °F 41% 29.93 in 10.0 mi SSW 5.8 mph - N/A   Overcast
9:55 PM 23.7 °F 16.6 °F 1.8 °F 39% 29.91 in 10.0 mi SW 5.8 mph - N/A   Mostly Cloudy
10:55 PM 24.3 °F 16.3 °F 3.4 °F 41% 29.90 in 10.0 mi WSW 6.9 mph - N/A   Overcast
11:55 PM 24.3 °F 15.4 °F 4.3 °F 42% 29.89 in 10.0 mi WSW 8.1 mph - N/A   Overcast